Location: Moscow
(55.7500°N, 37.5830°E)
Time: 04:45:45
(UTC+03:00)

Vanguard 1 - Pass Details

Date: 30 November 2021
Orbit: 652 x 3830 km, 34.2° (Epoch: 21 January)

Event Time Altitude Azimuth Distance (km) Brightness Sun altitude
Rises 23:58:44 0° 201° (SSW) 7,657 - -55.7°
Reaches altitude 10° 00:05:29 10° 190° (S) 6,851 - -55.8°
Maximum altitude 00:21:20 24° 147° (SSE) 5,656 - -55.9°
Exits shadow 00:32:37 15° 111° (ESE) 5,879 13.8 -55.8°
Drops below altitude 10° 00:35:23 10° 103° (ESE) 6,099 14.0 -55.7°
Sets 00:40:46 0° 91° (E) 6,690 14.4 -55.6°
